• Join FlightAware (Why Join?)
  • Login
  • US Flag GB Flag 
22:52 EST


 

Airport Tracker/Info


-or-


 

Live Flight TrackerFlight Track Log ✈ NTA204 ✈ 27-Oct-2011 ✈ CYVR - CYLW

Flight Track Log - Related Links

Times and Time Zones

All times are in EDT time to prevent confusion due to time zone crossing. See the NTA204 flight status page for this flight to view local times or setup timezone preferences in your user account.

Time Position Orientation Groundspeed Altitude Reporting Facility
EDT Latitude Longitude Course Direction KTS MPH feet Rate Location/Type
18:42 49.1361 -123.1698 North  Level FlightAware Approximate
18:42 49.1667 -123.1667 90° East 140 161 900  Level Vancouver Center
18:43 49.1667 -123.1167 107° East 150 173 2,100 1,550 Climbing Vancouver Center
18:44 49.1500 -123.0333 33° Northeast 140 161 4,000 1,650 Climbing Vancouver Center
18:45 49.1833 -123.0000 12° North 150 173 5,400 1,500 Climbing Vancouver Center
18:46 49.2333 -122.9833 44° Northeast 150 173 7,000 1,500 Climbing Vancouver Center
18:47 49.2667 -122.9333 33° Northeast 160 184 8,400 1,400 Climbing Vancouver Center
18:48 49.3000 -122.9000 44° Northeast 150 173 9,800 1,300 Climbing Vancouver Center
18:49 49.3333 -122.8500 63° Northeast 150 173 11,000 1,150 Climbing Vancouver Center
18:50 49.3500 -122.8000 44° Northeast 160 184 12,100 1,050 Climbing Vancouver Center
18:51 49.3833 -122.7500 44° Northeast 160 184 13,100 900 Climbing Vancouver Center
18:52 49.4167 -122.7000 33° Northeast 170 196 13,900 950 Climbing Vancouver Center
18:53 49.4667 -122.6500 52° Northeast 170 196 15,000 750 Climbing Vancouver Center
18:54 49.5000 -122.5833 44° Northeast 180 207 15,400 450 Climbing Vancouver Center
18:55 49.5333 -122.5333 52° Northeast 200 230 15,900 -50 Climbing Vancouver Center
18:56 49.5667 -122.4667 157° South 200 230 15,300 -900 Descending Vancouver Center
18:57 49.5167 -122.4333 203° Southwest 200 230 14,100 -1,350 Descending Vancouver Center
18:58 49.4667 -122.4667 180° South 190 219 12,600 -1,450 Descending Vancouver Center
18:59 49.4167 -122.4667 203° Southwest 190 219 11,200 -1,500 Descending Vancouver Center
19:00 49.3667 -122.5000 192° South 190 219 9,600 -1,500 Descending Vancouver Center
19:01 49.3167 -122.5167 224° Southwest 180 207 8,200 -1,400 Descending Vancouver Center
19:02 49.2833 -122.5667 224° Southwest 170 196 6,800 -1,300 Descending Vancouver Center
19:03 49.2500 -122.6167 224° Southwest 170 196 5,600 -900 Descending Vancouver Center
19:04 49.2167 -122.6667 249° West 160 184 5,000 -700 Descending Vancouver Center
19:05 49.2000 -122.7333 233° Southwest 160 184 4,200 -750 Descending Vancouver Center
19:06 49.1667 -122.8000 253° West 180 207 3,500 -700 Descending Vancouver Center
19:07 49.1500 -122.8833 270° West 180 207 2,800 -800 Descending Vancouver Center
19:08 49.1500 -122.9500 270° West 180 207 1,900 -650 Descending Vancouver Center
19:09 49.1500 -123.0000 270° West 170 196 1,500 -450 Descending Vancouver Center
19:10 49.1500 -123.0833 297° West 160 184 1,000 -600 Descending Vancouver Center
19:11 49.1667 -123.1333 41° Northeast 130 150 300 -700 Descending Vancouver Center
19:19 49.5269 -122.6524 130° Southeast  Level FlightAware Approximate
19:27 49.4350 -122.4864 43° Northeast  Level FlightAware Approximate
19:35 49.7535 -122.0294 37° Northeast  Level FlightAware Approximate
19:43 50.1503 -121.5630 92° East  Level FlightAware Approximate
19:51 50.1350 -120.8102 101° East  Level FlightAware Approximate
19:59 50.0404 -120.0489 101° East  Level FlightAware Approximate
20:07 49.9500 -119.3667 101° East  Level FlightAware Approximate